TG8AKV-17 Weather Reports


time (UTC)temp
C
wind
direction
speed
KPH
gust
KPH
rain 1hr
cm
rain 24hr
cm
rain mn
cm
humidity
%
barometer
mb
20260507064719 12 157 1.6 1.6 0.00 0.00 0.00 94 1018.0
20260507063718 12 157 1.6 1.6 0.00 0.00 0.00 94 1018.0
20260507062717 13 157 1.6 1.6 0.00 0.00 0.00 94 1018.0
20260507061717 13 157 1.6 1.6 0.00 0.00 0.00 94 1018.0
20260507060716 13 157 1.6 1.6 0.00 0.00 0.00 94 1018.0
20260507055715 13 157 1.6 1.6 0.00 0.00 0.00 94 1018.0
20260507054715 13 157 1.6 1.6 0.00 0.00 0.00 94 1018.0
20260507053714 13 157 1.6 1.6 0.00 0.00 0.00 94 1018.0
20260507052713 13 157 1.6 1.6 0.00 0.00 0.00 94 1019.0
20260507051712 13 157 1.6 1.6 0.00 0.00 0.00 94 1019.0
20260507050712 13 157 1.6 1.6 0.00 0.00 0.00 94 1019.0
20260507045711 13 157 1.6 1.6 0.00 0.00 0.00 94 1019.0
20260507044711 13 157 1.6 1.6 0.00 0.00 0.00 94 1018.0
20260507043710 13 157 1.6 1.6 0.00 0.00 0.00 94 1018.0
20260507042709 13 157 1.6 1.6 0.00 0.00 0.00 94 1018.0
20260507041709 13 157 1.6 1.6 0.00 0.00 0.00 94 1018.0
20260507040708 13 157 1.6 1.6 0.00 0.00 0.00 94 1018.0
20260507035707 13 157 1.6 1.6 0.00 0.00 0.00 94 1018.0
20260507034706 13 157 1.6 1.6 0.00 0.00 0.00 94 1018.0
20260507033706 13 157 1.6 1.6 0.00 0.00 0.00 94 1018.0
20260507032705 13 157 1.6 1.6 0.00 0.00 0.00 94 1018.0
20260507031704 13 157 1.6 1.6 0.00 0.00 0.00 94 1018.0
20260507030704 13 157 1.6 1.6 0.00 0.00 0.00 95 1018.0
20260507025703 13 157 1.6 1.6 0.00 0.00 0.00 95 1018.0
20260507024702 13 157 1.6 1.6 0.00 0.00 0.00 95 1018.0
20260507023702 13 157 1.6 1.6 0.00 0.00 0.00 95 1018.0
20260507022701 13 157 1.6 1.6 0.00 0.00 0.00 95 1017.0
20260507021701 13 157 1.6 1.6 0.00 0.00 0.00 95 1017.0
20260507020700 14 157 1.6 1.6 0.00 0.00 0.00 95 1017.0
20260507015659 14 157 1.6 1.6 0.00 0.00 0.00 95 1017.0
20260507014659 14 157 1.6 1.6 0.00 0.00 0.00 95 1017.0
20260507013658 14 157 1.6 1.6 0.00 0.00 0.00 95 1017.0
20260507012658 14 157 1.6 1.6 0.00 0.00 0.00 95 1016.0
20260507011657 14 157 1.6 1.6 0.00 0.00 0.00 95 1016.0
20260507010656 14 157 1.6 1.6 0.00 0.00 0.00 95 1016.0
20260507005656 14 157 1.6 1.6 0.00 0.00 0.00 95 1016.0
20260507004655 14 157 1.6 1.6 0.00 0.00 0.00 95 1016.0
20260507003655 18 166 4.8 8.0 0.00 0.00 0.00 84 1016.0
20260507002654 18 166 4.8 8.0 0.05 0.00 0.00 84 1015.0
20260507001653 17 166 4.8 8.0 0.08 0.00 0.00 85 1015.0
20260507000653 17 166 4.8 8.0 0.05 0.00 0.00 88 1015.0
20260506235652 16 166 4.8 8.0 0.05 0.00 0.00 94 1015.0
20260506234651 16 166 4.8 8.0 0.05 0.00 0.00 93 1015.0
20260506233651 16 166 4.8 8.0 0.08 0.00 0.00 92 1015.0
20260506232650 16 166 4.8 8.0 0.08 0.00 0.00 91 1014.0
20260506231650 16 166 4.8 8.0 0.05 0.00 0.00 89 1014.0
20260506230649 16 166 4.8 8.0 0.05 0.00 0.00 89 1014.0
20260506225648 16 166 4.8 8.0 0.00 0.00 0.00 89 1014.0
20260506224648 21 180 9.7 0.0 0.00 0.00 0.00 79 1014.0
20260506223647 21 180 9.7 0.0 0.00 0.00 0.00 79 1014.0
20260506222647 20 180 8.0 0.0 0.00 0.00 0.00 83 1014.0
20260506221646 20 180 9.7 0.0 0.00 0.00 0.00 77 1014.0
20260506220645 18 155 6.4 8.0 0.00 0.00 0.00 87 1014.0
20260506215645 18 155 6.4 8.0 0.00 0.00 0.00 85 1014.0
20260506214644 18 155 6.4 8.0 0.00 0.00 0.00 86 1014.0
20260506213643 18 155 6.4 8.0 0.00 0.00 0.00 88 1014.0
20260506212643 18 155 6.4 9.7 0.00 0.00 0.00 90 1014.0
20260506211642 18 155 6.4 9.7 0.00 0.00 0.00 90 1014.0
20260506210031 23 140 14.5 0.0 0.00 0.00 0.00 70 1014.0
20260506205031 23 140 14.5 0.0 0.00 0.00 0.00 71 1014.0
20260506204030 22 140 14.5 0.0 0.00 0.00 0.00 73 1014.0
20260506203029 22 140 14.5 0.0 0.00 0.00 0.00 75 1014.0
20260506202019 20 140 14.5 0.0 0.00 0.00 0.00 79 1014.0
20260506201019 18 163 6.4 8.0 0.00 0.00 0.00 86 1015.0
20260506200018 18 163 6.4 8.0 0.00 0.00 0.00 86 1015.0
20260506195018 18 163 6.4 8.0 0.00 0.00 0.00 82 1015.0
20260506194017 18 163 6.4 8.0 0.00 0.00 0.00 82 1015.0
20260506193016 18 163 6.4 9.7 0.00 0.00 0.00 76 1015.0
20260506192016 27 140 9.7 0.0 0.00 0.00 0.00 41 1015.0
20260506191015 27 140 9.7 0.0 0.00 0.00 0.00 41 1015.0
20260506190015 24 90 17.7 0.0 0.00 0.00 0.00 35 1015.0
20260506185014 22 90 17.7 0.0 0.00 0.00 0.00 46 1015.0
20260506184013 22 90 17.7 0.0 0.00 0.00 0.00 49 1015.0
20260506183013 18 181 6.4 9.7 0.00 0.00 0.00 76 1015.0
20260506182012 27 90 17.7 0.0 0.00 0.00 0.00 25 1016.0
20260506181012 25 187 8.0 12.9 0.00 0.00 0.00 36 1016.0
20260506180011 25 187 8.0 12.9 0.00 0.00 0.00 36 1016.0
20260506175010 24 187 8.0 12.9 0.00 0.00 0.00 38 1016.0
20260506172923 23 187 8.0 12.9 0.00 0.00 0.00 43 1016.0
20260506171922 22 187 8.0 12.9 0.00 0.00 0.00 54 1016.0
20260506170922 20 187 9.7 12.9 0.00 0.00 0.00 77 1016.0
20260506165921 20 0 0.0 0.0 0.00 0.00 0.00 74 1016.0
20260506164920 20 0 0.0 0.0 0.00 0.00 0.00 75 1016.0
20260506163920 20 0 0.0 0.0 0.00 0.00 0.00 74 1016.0
20260506162919 20 0 0.0 0.0 0.00 0.00 0.00 74 1016.0
20260506161937 20 0 0.0 0.0 0.00 0.00 0.00 74 1016.0
20260506160936 20 0 0.0 0.0 0.00 0.00 0.00 74 1016.0
20260506155936 17 189 8.0 9.7 0.00 0.00 0.00 86 1016.0
20260506154935 17 189 8.0 9.7 0.00 0.00 0.00 88 1017.0
20260506153935 17 189 8.0 9.7 0.00 0.00 0.00 90 1017.0
20260506152934 15 0 0.0 0.0 0.00 0.00 0.00 85 1017.0
20260506151933 15 0 0.0 0.0 0.00 0.00 0.00 86 1017.0
20260506150933 15 197 6.4 4.8 0.00 0.00 0.00 96 1017.0
20260506145932 15 213 1.6 1.6 0.00 0.00 0.00 89 1017.0
20260506144932 17 213 1.6 1.6 0.00 0.00 0.00 84 1017.0
20260506143931 17 213 1.6 1.6 0.00 0.00 0.00 84 1017.0
20260506142930 17 213 1.6 1.6 0.00 0.00 0.00 84 1017.0
20260506141930 17 213 1.6 1.6 0.00 0.00 0.00 82 1017.0
20260506140929 17 213 3.2 1.6 0.00 0.00 0.00 80 1017.0
20260506135929 12 0 0.0 0.0 0.00 0.00 0.00 94 1017.0
20260506134928 12 0 0.0 0.0 0.00 0.00 0.00 94 1017.0
20260506133927 12 0 0.0 0.0 0.00 0.00 0.00 94 1017.0
20260506132927 12 0 0.0 0.0 0.00 0.00 0.00 94 1017.0
20260506131926 12 0 0.0 0.0 0.00 0.00 0.00 94 1017.0
20260506130926 12 0 0.0 0.0 0.00 0.00 0.00 94 1017.0
20260506125925 12 0 0.0 0.0 0.00 0.00 0.00 93 1017.0
20260506124924 12 0 0.0 0.0 0.00 0.00 0.00 93 1017.0
20260506123924 11 14 4.8 4.8 0.00 0.00 0.00 94 1017.0
20260506122923 11 14 4.8 4.8 0.00 0.00 0.00 94 1018.0
20260506121923 11 14 4.8 4.8 0.00 0.00 0.00 94 1018.0
20260506120922 11 14 4.8 4.8 0.00 0.00 0.00 94 1018.0
20260506115921 11 14 4.8 4.8 0.00 0.00 0.00 94 1018.0
20260506114921 11 14 4.8 4.8 0.00 0.00 0.00 94 1018.0
20260506113920 11 14 4.8 4.8 0.00 0.00 0.00 94 1018.0
20260506112920 11 14 4.8 4.8 0.00 0.00 0.00 94 1018.0
20260506111919 12 153 4.8 8.0 0.00 0.00 0.00 94 1018.0
20260506110919 12 153 4.8 8.0 0.00 0.00 0.00 94 1018.0
20260506105918 12 153 4.8 8.0 0.00 0.00 0.00 94 1018.0
20260506104918 12 153 4.8 8.0 0.00 0.00 0.00 93 1018.0
20260506103917 12 153 4.8 8.0 0.00 0.00 0.00 93 1017.0
20260506102916 12 153 4.8 8.0 0.00 0.00 0.00 93 1017.0
20260506101916 12 153 4.8 8.0 0.00 0.00 0.00 93 1017.0
20260506100915 12 153 4.8 8.0 0.00 0.00 0.00 93 1017.0
20260506095915 12 153 4.8 8.0 0.00 0.00 0.00 93 1017.0
20260506094914 12 153 4.8 8.0 0.00 0.00 0.00 93 1017.0
20260506093914 12 153 4.8 8.0 0.00 0.00 0.00 92 1017.0
20260506092913 12 153 4.8 8.0 0.00 0.00 0.00 92 1017.0
20260506091912 12 153 4.8 8.0 0.00 0.00 0.00 93 1017.0
20260506090912 12 153 4.8 8.0 0.00 0.00 0.00 93 1017.0
20260506085911 12 153 4.8 8.0 0.00 0.00 0.00 93 1017.0
20260506084911 12 153 4.8 8.0 0.00 0.00 0.00 92 1017.0
20260506083905 12 153 4.8 8.0 0.00 0.00 0.00 92 1017.0
20260506082905 12 153 4.8 8.0 0.00 0.00 0.00 93 1018.0
20260506081904 12 153 4.8 8.0 0.00 0.00 0.00 94 1018.0
20260506080904 12 153 4.8 8.0 0.00 0.00 0.00 94 1018.0
20260506072844 12 153 4.8 8.0 0.00 0.00 0.00 94 1018.0
20260506071843 12 153 4.8 8.0 0.00 0.00 0.00 94 1018.0
20260506070843 12 153 4.8 8.0 0.00 0.00 0.00 94 1018.0